Location: Newark
(48.9320°N, 2.2664°E)
Time: 11:28:08
(UTC+00:00)

Vanguard 1 Rocket - Pass Details

Date: 23 February 2020
Orbit: 650 x 4226 km, 34.3° (Epoch: 06 April)

Event Time Altitude Azimuth Distance (km) Brightness Sun altitude
Rises 02:07:00 0° 228° (SW) 4,927 - -43.5°
Reaches altitude 10° 02:12:07 10° 210° (SSW) 3,282 - -42.9°
Maximum altitude 02:16:33 16° 174° (S) 2,313 - -42.4°
Drops below altitude 10° 02:19:58 10° 135° (SE) 2,414 - -42.0°
Sets 02:22:54 0° 113° (ESE) 3,117 - -41.6°
